Location: Grand Lay
(47.3253°N, 0.9468°E)
Time: 21:30:34
(UTC+00:00)

Cosmos 1763 Rocket - Pass Details

Date: 18 January 2026
Orbit: 729 x 773 km, 74.0° (Epoch: 18 February)

Event Time Altitude Azimuth Distance (km) Brightness Sun altitude
Exits shadow 06:10:52 10° 332° (NNW) 2,273 5.6 -14.2°
Reaches altitude 10° 06:10:57 10° 332° (NNW) 2,238 5.5 -14.2°
Maximum altitude 06:15:57 64° 252° (WSW) 811 3.4 -13.4°
Drops below altitude 10° 06:20:58 10° 171° (S) 2,240 6.3 -12.6°
Sets 06:23:19 0° 169° (S) 3,165 7.1 -12.2°
